Location: Newark
(36.1358°N, 115.1208°W)
Time: 12:13:02
(UTC+00:00)

Vanguard 2 Rocket - Visible Passes

Search period start: 17 February 2020 00:00
Search period end: 27 February 2020 00:00
Orbit: 554 x 3326 km, 32.9° (Epoch: 16 February)

Date Brightness Start Highest point End Pass type
(mag) Time Alt. Az. Time Alt. Az. Time Alt. Az.
17 Feb 9.9 01:53:25 10° SSW 02:06:49 25° SSE 02:16:39 11° ESE visible
17 Feb 8.9 04:07:16 10° SW 04:22:29 49° SSE 04:22:29 49° SSE visible
17 Feb 10.2 06:25:11 10° WSW 06:28:19 18° WSW 06:28:19 18° WSW visible
18 Feb 9.1 03:05:37 10° SW 03:21:59 42° SSE 03:26:33 34° ESE visible
18 Feb 9.3 05:22:48 10° WSW 05:32:23 40° SW 05:32:23 40° SW visible
19 Feb 9.6 02:04:34 10° SSW 02:20:49 35° SSE 02:30:36 16° E visible
19 Feb 8.7 04:20:26 10° WSW 04:36:26 60° S 04:36:26 60° S visible
19 Feb 10.2 06:39:14 10° W 06:42:15 18° W 06:42:15 18° W visible
20 Feb 8.9 03:18:19 10° SW 03:36:02 54° SSE 03:40:27 42° ESE visible
20 Feb 9.4 05:36:41 10° WSW 05:46:17 41° WSW 05:46:17 41° WSW visible
21 Feb 9.5 02:16:42 10° SW 02:34:45 46° SSE 02:44:27 20° E visible
21 Feb 8.6 04:34:02 10° WSW 04:50:16 69° SSW 04:50:16 69° SSW visible
21 Feb 10.3 06:53:22 10° W 06:56:06 17° W 06:56:06 17° W visible
22 Feb 8.7 03:31:34 10° WSW 03:50:04 65° SSE 03:54:14 49° ESE visible
22 Feb 9.5 05:50:44 10° W 06:00:03 39° WSW 06:00:03 39° WSW visible
23 Feb 9.4 02:29:31 10° SW 02:48:41 58° SSE 02:58:10 24° E visible
23 Feb 8.7 04:47:56 10° WSW 05:03:59 72° SW 05:03:59 72° SW visible
23 Feb 10.4 07:07:31 10° W 07:09:48 16° W 07:09:48 16° W visible
24 Feb 9.8 01:28:06 10° SW 01:47:03 50° SSE 02:01:28 10° E visible
24 Feb 8.7 03:45:13 10° WSW 04:04:10 73° S 04:07:54 55° ESE visible
24 Feb 9.6 06:04:52 10° W 06:13:42 37° W 06:13:42 37° W visible
25 Feb 9.3 02:42:51 10° WSW 03:02:39 68° SSE 03:11:46 28° E visible
25 Feb 8.8 05:02:00 10° W 05:17:35 69° WSW 05:17:35 69° WSW visible
25 Feb 10.5 07:21:43 10° W 07:23:23 14° W 07:23:23 14° W visible
26 Feb 9.7 01:41:02 10° SW 02:00:53 60° SSE 02:15:38 11° E visible
26 Feb 8.6 03:59:08 10° WSW 04:18:18 78° S 04:21:25 62° ESE visible
26 Feb 9.7 06:19:01 10° W 06:27:14 34° W 06:27:14 34° W visible
